• In Österreich
  • Länderverzeichnis
  • Für 7 Tage
  • Wassertemperatur
  • Satellitenkarten
  • Wetterkarte
  • News
  • Widgets
  • user-avatar
    Anmelden

    Stündliche Wetter Kuznik

    Heute, 21 April, Samstag

    Zeit Temperatur Niederschläge Wind Luftdruck Luftfeuchtigkeit
    00:00 +17°C° 0 mm 3 m/S 758 mmHg 76%
    01:00 +17°C° 0 mm 2 m/S 758 mmHg 78%
    02:00 +16°C° 0 mm 2 m/S 758 mmHg 80%
    03:00 +16°C° 0 mm 2 m/S 757 mmHg 83%
    04:00 +15°C° 0 mm 2 m/S 757 mmHg 85%
    05:00 +16°C° 0 mm 2 m/S 758 mmHg 81%
    06:00 +16°C° 0 mm 3 m/S 758 mmHg 76%
    07:00 +17°C° 0 mm 3 m/S 758 mmHg 71%
    08:00 +18°C° 0 mm 3 m/S 758 mmHg 65%
    09:00 +19°C° 0 mm 3 m/S 758 mmHg 59%
    10:00 +20°C° 0 mm 4 m/S 758 mmHg 53%
    11:00 +21°C° 0 mm 4 m/S 758 mmHg 50%
    12:00 +22°C° 0 mm 4 m/S 758 mmHg 47%
    13:00 +23°C° 0 mm 4 m/S 758 mmHg 44%
    14:00 +22°C° 0 mm 4 m/S 758 mmHg 44%
    15:00 +22°C° 0 mm 4 m/S 758 mmHg 44%
    16:00 +21°C° 0 mm 5 m/S 758 mmHg 45%
    17:00 +19°C° 0 mm 4 m/S 758 mmHg 50%
    18:00 +17°C° 0 mm 3 m/S 758 mmHg 54%
    19:00 +14°C° 0 mm 3 m/S 759 mmHg 59%
    20:00 +14°C° 0 mm 2 m/S 759 mmHg 61%
    21:00 +13°C° 0 mm 2 m/S 759 mmHg 63%
    22:00 +10°C° 0 mm 2 m/S 759 mmHg 65%
    23:00 +11°C° 0 mm 1 m/S 759 mmHg 67%

    Morgen, 22 April, Sonntag

    Zeit Temperatur Niederschläge Wind Luftdruck Luftfeuchtigkeit
    00:00 +10°C° 0 mm 1 m/S 759 mmHg 68%
    01:00 +10°C° 0 mm 1 m/S 759 mmHg 70%
    02:00 +8°C° 0 mm 0 m/S 759 mmHg 71%
    03:00 +8°C° 0 mm 0 m/S 759 mmHg 73%
    04:00 +8°C° 0 mm 0 m/S 759 mmHg 74%
    05:00 +9°C° 0 mm 0 m/S 759 mmHg 70%
    06:00 +10°C° 0 mm 0 m/S 759 mmHg 67%
    07:00 +11°C° 0 mm 0 m/S 759 mmHg 63%
    08:00 +13°C° 0 mm 0 m/S 759 mmHg 57%
    09:00 +15°C° 0 mm 0 m/S 759 mmHg 51%
    10:00 +19°C° 0 mm 1 m/S 758 mmHg 45%
    11:00 +21°C° 0 mm 1 m/S 758 mmHg 41%
    12:00 +20°C° 0 mm 0 m/S 758 mmHg 38%
    13:00 +21°C° 0 mm 0 m/S 757 mmHg 35%
    14:00 +21°C° 0 mm 0 m/S 757 mmHg 34%
    15:00 +21°C° 0 mm 0 m/S 757 mmHg 34%
    16:00 +21°C° 0 mm 0 m/S 756 mmHg 33%
    17:00 +21°C° 0 mm 1 m/S 756 mmHg 38%
    18:00 +19°C° 0 mm 1 m/S 755 mmHg 44%
    19:00 +17°C° 0 mm 2 m/S 755 mmHg 49%
    20:00 +16°C° 0 mm 2 m/S 755 mmHg 51%
    21:00 +15°C° 0 mm 2 m/S 755 mmHg 53%
    22:00 +13°C° 0 mm 3 m/S 755 mmHg 56%
    23:00 +13°C° 0 mm 3 m/S 755 mmHg 57%

    übermorgen, 23 April, Montag

    Zeit Temperatur Niederschläge Wind Luftdruck Luftfeuchtigkeit
    00:00 +13°C° 0 mm 3 m/S 755 mmHg 59%
    01:00 +12°C° 0 mm 3 m/S 754 mmHg 60%
    02:00 +12°C° 0,1 mm 3 m/S 754 mmHg 63%
    03:00 +12°C° 0,1 mm 3 m/S 754 mmHg 66%
    04:00 +12°C° 0,1 mm 3 m/S 753 mmHg 68%
    05:00 +13°C° 0,1 mm 3 m/S 753 mmHg 71%
    06:00 +14°C° 0,1 mm 3 m/S 753 mmHg 73%
    07:00 +15°C° 0,1 mm 4 m/S 753 mmHg 76%
    08:00 +17°C° 0,3 mm 4 m/S 753 mmHg 74%
    09:00 +19°C° 0,3 mm 4 m/S 752 mmHg 73%
    10:00 +21°C° 0,3 mm 4 m/S 752 mmHg 72%
    11:00 +21°C° 0,6 mm 4 m/S 752 mmHg 69%
    12:00 +22°C° 0,6 mm 5 m/S 752 mmHg 65%
    13:00 +22°C° 0,6 mm 5 m/S 752 mmHg 61%
    14:00 +22°C° 0,8 mm 6 m/S 752 mmHg 64%
    15:00 +21°C° 0,8 mm 6 m/S 752 mmHg 67%
    16:00 +20°C° 0,8 mm 6 m/S 753 mmHg 69%
    17:00 +19°C° 0,1 mm 5 m/S 753 mmHg 72%
    18:00 +17°C° 0,1 mm 4 m/S 753 mmHg 75%
    19:00 +16°C° 0,1 mm 3 m/S 754 mmHg 77%
    20:00 +14°C° 0 mm 3 m/S 754 mmHg 79%
    21:00 +13°C° 0 mm 3 m/S 755 mmHg 80%
    22:00 +13°C° 0 mm 2 m/S 756 mmHg 82%
    23:00 +12°C° 0 mm 2 m/S 756 mmHg 84%

    24 April, Dienstag

    Zeit Temperatur Niederschläge Wind Luftdruck Luftfeuchtigkeit
    00:00 +10°C° 0 mm 2 m/S 756 mmHg 86%
    01:00 +10°C° 0 mm 2 m/S 756 mmHg 88%
    02:00 +9°C° 0 mm 2 m/S 757 mmHg 88%
    03:00 +8°C° 0 mm 3 m/S 757 mmHg 89%
    04:00 +8°C° 0 mm 3 m/S 757 mmHg 89%
    05:00 +9°C° 0 mm 3 m/S 757 mmHg 84%
    06:00 +8°C° 0 mm 4 m/S 757 mmHg 79%
    07:00 +10°C° 0 mm 4 m/S 757 mmHg 74%
    08:00 +12°C° 0 mm 4 m/S 757 mmHg 67%
    09:00 +13°C° 0 mm 5 m/S 757 mmHg 60%
    10:00 +14°C° 0 mm 5 m/S 757 mmHg 53%
    11:00 +16°C° 0 mm 5 m/S 757 mmHg 50%
    12:00 +17°C° 0 mm 5 m/S 756 mmHg 47%
    13:00 +19°C° 0 mm 5 m/S 756 mmHg 44%
    14:00 +19°C° 0,1 mm 5 m/S 756 mmHg 47%
    15:00 +17°C° 0,1 mm 5 m/S 756 mmHg 50%
    16:00 +17°C° 0,1 mm 5 m/S 755 mmHg 53%
    17:00 +17°C° 0,2 mm 4 m/S 755 mmHg 61%
    18:00 +16°C° 0,2 mm 3 m/S 755 mmHg 70%
    19:00 +14°C° 0,2 mm 2 m/S 755 mmHg 78%
    20:00 +14°C° 0 mm 2 m/S 755 mmHg 81%
    21:00 +13°C° 0 mm 2 m/S 755 mmHg 84%
    22:00 +12°C° 0 mm 2 m/S 755 mmHg 86%
    23:00 +12°C° 0 mm 2 m/S 755 mmHg 87%

    25 April, Mittwoch

    Zeit Temperatur Niederschläge Wind Luftdruck Luftfeuchtigkeit
    00:00 +12°C° 0 mm 2 m/S 755 mmHg 87%
    01:00 +12°C° 0 mm 2 m/S 755 mmHg 88%
    02:00 +10°C° 0 mm 2 m/S 755 mmHg 89%
    03:00 +10°C° 0 mm 2 m/S 754 mmHg 90%
    04:00 +10°C° 0 mm 2 m/S 754 mmHg 91%
    05:00 +12°C° 0 mm 2 m/S 754 mmHg 87%
    06:00 +12°C° 0 mm 3 m/S 753 mmHg 82%
    07:00 +13°C° 0 mm 3 m/S 753 mmHg 77%
    08:00 +15°C° 0 mm 4 m/S 753 mmHg 69%
    09:00 +17°C° 0 mm 5 m/S 752 mmHg 60%
    10:00 +21°C° 0 mm 5 m/S 752 mmHg 52%
    11:00 +22°C° 0 mm 6 m/S 751 mmHg 49%
    12:00 +23°C° 0 mm 6 m/S 751 mmHg 47%
    13:00 +24°C° 0 mm 7 m/S 750 mmHg 45%
    14:00 +24°C° 0 mm 7 m/S 750 mmHg 44%
    15:00 +24°C° 0 mm 6 m/S 749 mmHg 44%
    16:00 +24°C° 0 mm 6 m/S 749 mmHg 44%
    17:00 +22°C° 0,1 mm 5 m/S 749 mmHg 51%
    18:00 +20°C° 0,1 mm 5 m/S 749 mmHg 58%
    19:00 +19°C° 0,1 mm 4 m/S 749 mmHg 65%
    20:00 +17°C° 0 mm 4 m/S 750 mmHg 69%
    21:00 +15°C° 0 mm 4 m/S 750 mmHg 73%
    22:00 +14°C° 0 mm 4 m/S 750 mmHg 77%
    23:00 +13°C° 0 mm 4 m/S 751 mmHg 79%

    26 April, Donnerstag

    Zeit Temperatur Niederschläge Wind Luftdruck Luftfeuchtigkeit
    00:00 +12°C° 0 mm 4 m/S 751 mmHg 81%
    01:00 +11°C° 0 mm 4 m/S 752 mmHg 82%
    02:00 +10°C° 0 mm 3 m/S 752 mmHg 84%
    03:00 +9°C° 0 mm 3 m/S 753 mmHg 86%
    04:00 +8°C° 0 mm 3 m/S 753 mmHg 87%
    05:00 +8°C° 0 mm 3 m/S 754 mmHg 83%
    06:00 +8°C° 0 mm 3 m/S 754 mmHg 79%
    07:00 +9°C° 0 mm 2 m/S 754 mmHg 75%
    08:00 +11°C° 0 mm 3 m/S 754 mmHg 68%
    09:00 +12°C° 0 mm 3 m/S 754 mmHg 60%
    10:00 +14°C° 0 mm 4 m/S 754 mmHg 52%
    11:00 +15°C° 0 mm 4 m/S 754 mmHg 50%
    12:00 +15°C° 0 mm 4 m/S 753 mmHg 48%
    13:00 +16°C° 0 mm 5 m/S 753 mmHg 46%
    14:00 +15°C° 0,2 mm 5 m/S 753 mmHg 51%
    15:00 +14°C° 0,2 mm 5 m/S 753 mmHg 57%
    16:00 +13°C° 0,2 mm 5 m/S 753 mmHg 63%
    17:00 +13°C° 0 mm 4 m/S 753 mmHg 64%
    18:00 +12°C° 0 mm 3 m/S 754 mmHg 66%
    19:00 +12°C° 0 mm 2 m/S 754 mmHg 67%
    20:00 +12°C° 0 mm 2 m/S 754 mmHg 68%
    21:00 +10°C° 0 mm 2 m/S 755 mmHg 69%
    22:00 +10°C° 0 mm 2 m/S 755 mmHg 70%
    23:00 +9°C° 0 mm 2 m/S 755 mmHg 72%
    Mehr zeigen